Location: Mt. Bigelow
(32.4165°N, 110.7345°W)
Time: 21:08:03
(UTC-07:00)

N. Korean satellite - Visible Passes

Search period start: 10 December 2018 00:00
Search period end: 20 December 2018 00:00
Orbit: 456 x 511 km, 97.2° (Epoch: 09 December)

Date Brightness Start Highest point End Pass type
(mag) Time Alt. Az. Time Alt. Az. Time Alt. Az.
11 Dec 6.5 06:40:01 10° N 06:43:35 80° W 06:47:11 10° SSW visible
11 Dec 9.5 18:45:40 10° SW 18:48:07 18° W 18:50:34 10° NW visible
12 Dec 8.0 06:15:38 10° NNE 06:19:02 41° E 06:22:28 10° S visible
12 Dec 7.9 18:20:14 10° S 18:23:28 41° W 18:26:44 10° NNW visible
13 Dec 9.6 05:51:47 10° NE 05:54:24 19° E 05:57:02 10° SE visible
13 Dec 6.3 17:55:30 10° SSE 17:58:55 77° ENE 18:02:19 10° N visible
15 Dec 6.6 06:35:10 10° NNE 06:38:45 87° E 06:42:24 10° S visible
15 Dec 9.2 18:40:35 10° SSW 18:43:14 21° W 18:45:54 10° NW visible
16 Dec 8.3 06:10:51 10° NNE 06:14:11 36° E 06:17:35 10° SSE visible
16 Dec 7.5 18:15:18 10° S 18:18:36 49° W 18:21:56 10° NNW visible
17 Dec 9.8 05:47:08 10° NE 05:49:33 17° E 05:51:58 10° SE visible
17 Dec 6.4 17:50:40 10° SSE 17:54:02 64° ENE 17:57:26 10° N visible
18 Dec 10.0 19:02:01 10° WSW 19:03:01 11° W 19:04:03 10° WNW visible
19 Dec 6.8 06:30:17 10° NNE 06:33:54 74° ESE 06:37:34 10° S visible
19 Dec 9.0 18:35:29 10° SSW 18:38:19 24° W 18:41:10 10° NW visible
